Regional Weather Roundup
Issued by NWS Goodland, KS

Home | Current Version | Previous Version | Text Only | Print | Product List | Glossary Off
Versions: 1 2 3 4 5 6 7 8 9 10 11 12 13 14 15 16 17 18 19 20 21 22 23 24 25 26 27 28 29 30 31 32 33 34 35 36 37 38 39 40 41 42 43 44 45 46 47 48 49 50

000
ASUS43 KGLD 181008
RWRGLD

GOODLAND FORECAST AREA HOURLY WEATHER ROUNDUP
NATIONAL WEATHER SERVICE GOODLAND KS
400 AM MDT FRI AUG 18 2017

...OFFICIAL OBSERVATIONS...

CITY           SKY/WX    TMP DP  RH WIND       PRES   REMARKS
GOODLAND KS    CLEAR     60  55  83 S13       30.03R
HILL CITY KS   CLOUDY    66  58  75 SW6       29.98R
IMPERIAL NEB   CLEAR     57  54  89 N3        30.02S
MCCOOK NEB     CLEAR     61  57  87 CALM      30.01R
AKRON CO       CLOUDY    57  48  72 N13       30.10R
BURLINGTON CO  CLEAR     58  56  93 SW9       30.06S
LIMON CO       CLEAR     53  48  83 W8        30.14F
$$

...UNOFFICIAL OBSERVATIONS...

CITY           SKY/WX    TMP DP  RH WIND       PRES   REMARKS
LENORA KS        N/A     60  32  34 NE5         N/A
NORTON KS      CLEAR     61  52  72 N3        30.01
SHARON SPRINGS   N/A     58  55  91 S8          N/A
TRENTON NEB      N/A     61  32  33 CALM        N/A
KIT CARSON CO    N/A     58  52  80 CALM        N/A
YUMA CO        FAIR      52  50  93 W6        30.06S
$$




USA.gov is the U.S. government's official web portal to all federal, state and local government web resources and services.